THOR ABLESTAR DEB, 13364

Orbit data source: Space-Track

THOR ABLESTAR DEB, 13364 is space debris in LEO originally from a launch on Thu, 29 Jun 1961 UTC launched from the Air Force Eastern Test Range (AFETR). Debris objects in space refer to the collection of defunct objects orbiting the Earth. Examples of debris include non-operational satellites, rocket bodies, and fragments generated from explosions, collisions, or faulty payload assembly.

Loading next visibility...
Identifier
13364, 1961-015KS
Orbit
LEO
Country
Flag of USUS
Related business
Manufacturer
Unknown
Mission
Spacecraft
Bus & Motor
Unknown
Mass
Unknown
Launch date (UTC)
1961-06-29 (64 years ago)
Launch vehicle
Unknown
Launch site
Air Force Eastern Test Range (AFETR)
Object type
Payload
Rocket body
Debris
Shape & HBR
Unknown shape, 0.1 m
Radar Cross Section
Small (<0.1 m²)

Expand to show TLE details & history
Last TLE update: 13 hours ago

TLE from 13 hours ago
0 THOR ABLESTAR DEB
1 13364U 61015KS  25293.92184965  .00000983  00000-0  10318-2 0  9990
2 13364  66.2604 189.6114 0103214 308.3800 137.7825 13.77021286379230
Epoch: 2025-10-20T22:07Z
TLE epoch observation values (Epoch: 2025-10-20T22:07:27.809Z)
Latitude
66.18552°
Longitude
-89.42056°
Altitude
1,041.592 km
Speed
7.309 km/s
True Right ascension
18h 08m 15s
True Declination
66° 03' 47"
Sunlit
Object was in daylight at epoch
Visualization orbit readout
Latitude
Unknown
Longitude
Unknown
Altitude
Unknown
Speed
Unknown
Apparent Right ascension
Unknown
Apparent Declination
Unknown
Sunlit
N/A
Visualization observer readout
Local Sidereal Time
05:59:28
Azimuth
Unknown
Elevation
Unknown
Doppler factor
Unknown
Orbital elements
Apogee altitude
1,048.81 km
Perigee altitude
897.063 km
Semi-major axis
7,351.074 km
Eccentricity
0.01032
Inclination
66.2604°
RAAN
189.6114°
Arg. of periapsis
308.38°
True anomaly
138.56969°
Mean anomaly
137.7825°
Eccentric anomaly
138.17685°
Mean motion
3.44363 °/min
Orbital period
104.54 mins
BSTAR
0.0010318
Loading maneuver chart data...
Computing Atmospheric mass density...

Documentation

Showing up to 5 results
|